Change the Weather History Date:

Sunday, February 16, 2014

  Actual Average Record
Temperature  
Mean Temperature 5 °F -  
Max Temperature 12 °F 26 °F 55 °F (2011)
Min Temperature -2 °F 4 °F -26 °F (1958)
Degree Days  
Heating Degree Days 60    
Moisture  
Dew Point 1 °F    
Average Humidity 83    
Maximum Humidity 91    
Minimum Humidity 73    
Precipitation  
Precipitation 0.00 in - - ()
Sea Level Pressure  
Sea Level Pressure 30.23 in    
Wind  
Wind Speed 9 mph (NNE)    
Max Wind Speed 15 mph    
Max Gust Speed -    
Visibility 6 miles    
Events Fog , Snow    
Averages and records for this station are not official NWS values.
T = Trace of Precipitation, MM = Missing Value Source: NWS Daily Summary

Daily Weather History Graph

Daily Weather History Graph

Search for Another Location

Airport or City:

Trip Planner

Search our weather history database for the weather conditions in past years. The results will help you decide how hot, cold, wet, or windy it might be!

Date:

Astronomy

Feb. 16, 2014 Rise Set
Actual Time 7:05 AM CST 5:30 PM CST
Civil Twilight 6:34 AM CST 6:01 PM CST
Nautical Twilight 5:59 AM CST 6:36 PM CST
Astronomical Twilight 5:24 AM CST 7:11 PM CST
Moon 7:37 PM CST (2/16) 7:27 AM CST (2/16)
Length of Visible Light 11h 26m
Length of Day
10h 24m
Full, 97% of the Moon is Illuminated
Feb 16
Full
Feb 22
Last Quarter
Mar 1
New
Mar 8
First Quarter
Mar 16
Full

Hourly Weather History & Observations

Time (CST) Temp. Windchill Dew Point Humidity Pressure Visibility Wind Dir Wind Speed Gust Speed Precip Events Conditions
12:24 AM 8.1 °F -9.0 °F 3.9 °F 83% 30.07 in 4.0 mi NNE 15.0 mph - 0.00 in Snow Light Snow
12:53 AM 8.1 °F -8.4 °F 3.9 °F 83% 30.16 in 5.0 mi North 13.8 mph - 0.00 in Snow Light Snow
1:53 AM 5.0 °F -10.0 °F 1.0 °F 84% 30.18 in 7.0 mi North 10.4 mph - 0.00 in   Overcast
2:22 AM -0.9 °F -14.1 °F -5.1 °F 83% 30.12 in 3.0 mi North 6.9 mph - 0.00 in Snow Light Snow
2:29 AM -0.0 °F -14.2 °F -2.0 °F 91% 30.11 in 1.8 mi North 8.1 mph - 0.00 in Snow Light Snow
2:36 AM -0.0 °F -14.2 °F -2.0 °F 91% 30.11 in 2.0 mi North 8.1 mph - 0.00 in Snow Light Snow
2:44 AM -0.0 °F -13.0 °F -2.9 °F 88% 30.11 in 4.0 mi North 6.9 mph - 0.00 in Snow Light Snow
2:53 AM -0.9 °F -12.7 °F -2.9 °F 91% 30.18 in 3.0 mi North 5.8 mph - 0.00 in Snow Light Snow
3:01 AM 1.0 °F -10.3 °F -2.0 °F 87% 30.11 in 4.0 mi North 5.8 mph - 0.00 in Snow Light Snow
3:21 AM -2.0 °F -15.4 °F -4.0 °F 91% 30.11 in 1.8 mi North 6.9 mph - 0.00 in Snow Light Snow
3:36 AM 1.0 °F -11.7 °F -2.0 °F 87% 30.12 in 3.0 mi North 6.9 mph - 0.00 in Snow Light Snow
3:53 AM 3.0 °F -10.5 °F -0.0 °F 87% 30.19 in 4.0 mi North 8.1 mph - 0.00 in   Overcast
4:39 AM 5.0 °F -6.9 °F 1.0 °F 84% 30.15 in 2.5 mi North 6.9 mph - 0.00 in Snow Light Snow
4:53 AM 5.0 °F -9.1 °F 1.9 °F 87% 30.22 in 2.5 mi NNE 9.2 mph - 0.00 in Snow Light Snow
5:01 AM 5.0 °F -9.1 °F 1.9 °F 87% 30.16 in 3.0 mi NNE 9.2 mph - 0.00 in   Overcast
5:53 AM 6.1 °F -10.9 °F 1.9 °F 83% 30.25 in 9.0 mi NNE 13.8 mph - 0.00 in   Overcast
6:53 AM 5.0 °F -10.8 °F 1.9 °F 87% 30.28 in 2.0 mi NNE 11.5 mph - 0.00 in Snow Light Snow
7:09 AM 5.0 °F -10.0 °F 1.9 °F 87% 30.22 in 1.2 mi NNE 10.4 mph - 0.00 in Snow Light Snow
7:53 AM 5.0 °F -9.1 °F 1.0 °F 84% 30.30 in 1.0 mi NNE 9.2 mph - 0.00 in Snow Light Snow
8:20 AM 3.9 °F -10.4 °F -0.0 °F 84% 30.24 in 0.8 mi NNE 9.2 mph - 0.00 in Snow Light Snow
8:53 AM 5.0 °F -8.1 °F 1.0 °F 84% 30.31 in 0.5 mi NNE 8.1 mph - 0.00 in Fog , Snow Light Snow
9:09 AM 7.0 °F -9.1 °F 1.9 °F 80% 30.24 in 1.5 mi ENE 12.7 mph - 0.00 in Snow Light Snow
9:17 AM 7.0 °F -9.1 °F 1.9 °F 80% 30.24 in 3.0 mi ENE 12.7 mph - 0.00 in   Haze
9:53 AM 8.1 °F -5.3 °F 3.0 °F 80% 30.33 in 4.0 mi NE 9.2 mph - 0.00 in   Haze
10:13 AM 8.1 °F -4.3 °F 3.0 °F 80% 30.28 in 2.5 mi NE 8.1 mph - N/A   Haze
10:36 AM 9.0 °F -2.2 °F 3.0 °F 77% 30.28 in 3.0 mi NE 6.9 mph - N/A   Haze
10:53 AM 10.0 °F -0.9 °F 3.0 °F 73% 30.35 in 4.0 mi NE 6.9 mph - N/A   Haze
11:53 AM 9.0 °F -5.1 °F 3.0 °F 77% 30.35 in 7.0 mi North 10.4 mph - N/A   Overcast
12:53 PM 10.0 °F -3.7 °F 3.9 °F 76% 30.32 in 10.0 mi North 10.4 mph - N/A   Mostly Cloudy
1:07 PM 10.0 °F -4.5 °F 3.9 °F 76% 30.26 in 10.0 mi North 11.5 mph - N/A   Scattered Clouds
1:53 PM 10.0 °F -3.7 °F 3.9 °F 76% 30.30 in 10.0 mi NNE 10.4 mph - N/A   Clear
2:33 PM 10.9 °F -1.8 °F 5.0 °F 77% 30.23 in 9.0 mi NNE 9.2 mph - N/A   Mostly Cloudy
2:42 PM 12.0 °F 0.5 °F 5.0 °F 73% 30.23 in 10.0 mi NNE 8.1 mph - N/A   Scattered Clouds
2:53 PM 10.9 °F -2.6 °F 5.0 °F 77% 30.30 in 10.0 mi NNE 10.4 mph - N/A   Partly Cloudy
3:53 PM 10.0 °F -2.9 °F 3.0 °F 73% 30.30 in 10.0 mi NE 9.2 mph - N/A   Clear
4:53 PM 7.0 °F -7.5 °F 3.0 °F 84% 30.28 in 10.0 mi ENE 10.4 mph - N/A   Clear
5:53 PM 3.9 °F -8.2 °F 1.0 °F 88% 30.28 in 10.0 mi ENE 6.9 mph - N/A   Clear
6:53 PM 1.0 °F -8.7 °F -2.0 °F 87% 30.27 in 10.0 mi ENE 4.6 mph - N/A   Clear
7:53 PM 1.9 °F - -0.9 °F 88% 30.27 in 10.0 mi Calm Calm - N/A   Clear
8:53 PM -0.9 °F - -5.1 °F 83% 30.25 in 10.0 mi Calm Calm - N/A   Clear
9:53 PM -0.9 °F - -5.1 °F 83% 30.23 in 10.0 mi Calm Calm - N/A   Clear
10:53 PM 3.0 °F -6.4 °F -0.9 °F 84% 30.20 in 10.0 mi East 4.6 mph - N/A   Clear
11:53 PM 6.1 °F -4.3 °F 3.0 °F 87% 30.19 in 10.0 mi ENE 5.8 mph - N/A   Mostly Cloudy